�������l�o���
Date,Time,MP-1(��Sv/h),MP-2(��Sv/h),MP-3(��Sv/h),MP-4(��Sv/h),MP-5(��Sv/h),MP-6(��Sv/h),MP-7(��Sv/h),MP-8(��Sv/h),����,����(m/s),���J
2022/09/09,00:00,0.572,0.802,0.515,0.985,0.702,0.334,0.576,0.545,�k��,6.0,�L
2022/09/09,00:10,0.572,0.802,0.514,0.985,0.700,0.333,0.576,0.546,�k�k��,5.3,�L
2022/09/09,00:20,0.573,0.802,0.516,0.983,0.703,0.332,0.575,0.547,�k��,4.5,�L
2022/09/09,00:30,0.572,0.802,0.514,0.985,0.700,0.333,0.577,0.546,�k�k��,5.2,�L
2022/09/09,00:40,0.573,0.804,0.514,0.985,0.701,0.334,0.578,0.547,�k�k��,5.0,�L
2022/09/09,00:50,0.573,0.804,0.514,0.986,0.701,0.332,0.576,0.546,�k�k��,5.3,�L
2022/09/09,01:00,0.574,0.805,0.513,0.984,0.700,0.334,0.576,0.547,�k�k��,5.2,�L
2022/09/09,01:10,0.573,0.803,0.514,0.984,0.702,0.333,0.577,0.547,�k,5.4,�L
2022/09/09,01:20,0.573,0.803,0.514,0.984,0.700,0.334,0.577,0.547,�k�k��,5.2,��
2022/09/09,01:30,0.574,0.803,0.514,0.982,0.702,0.332,0.577,0.547,�k�k��,5.5,��
2022/09/09,01:40,0.576,0.804,0.513,0.986,0.701,0.332,0.576,0.548,�k�k��,5.6,��
2022/09/09,01:50,0.574,0.804,0.514,0.983,0.700,0.332,0.576,0.547,�k�k��,4.6,��
2022/09/09,02:00,0.574,0.805,0.513,0.983,0.700,0.332,0.576,0.547,�k�k��,4.5,��
2022/09/09,02:10,0.574,0.806,0.513,0.985,0.702,0.333,0.575,0.547,�k�k��,4.6,��
2022/09/09,02:20,0.575,0.805,0.515,0.987,0.701,0.333,0.577,0.548,�k�k��,4.9,��
2022/09/09,02:30,0.574,0.804,0.515,0.987,0.702,0.332,0.576,0.548,�k,5.4,�L
2022/09/09,02:40,0.574,0.806,0.514,0.985,0.701,0.332,0.577,0.547,�k,4.9,�L
2022/09/09,02:50,0.574,0.804,0.515,0.986,0.701,0.331,0.577,0.548,�k,4.7,�L
2022/09/09,03:00,0.574,0.805,0.515,0.986,0.700,0.331,0.577,0.547,�k,4.8,�L
2022/09/09,03:10,0.573,0.805,0.513,0.986,0.700,0.334,0.577,0.546,�k�k��,4.3,�L
2022/09/09,03:20,0.574,0.806,0.513,0.987,0.700,0.334,0.578,0.546,�k�k��,5.3,�L
2022/09/09,03:30,0.573,0.805,0.516,0.987,0.701,0.333,0.579,0.548,�k�k��,5.4,��
2022/09/09,03:40,0.573,0.805,0.515,0.985,0.703,0.332,0.577,0.547,�k�k��,4.9,�L
2022/09/09,03:50,0.574,0.806,0.514,0.986,0.700,0.334,0.578,0.547,�k�k��,4.1,�L
2022/09/09,04:00,0.576,0.805,0.515,0.986,0.700,0.333,0.576,0.547,�k�k��,4.1,�L
2022/09/09,04:10,0.576,0.808,0.514,0.985,0.702,0.333,0.579,0.548,�k�k��,3.5,��
2022/09/09,04:20,0.574,0.807,0.515,0.988,0.702,0.333,0.578,0.548,�k�k��,4.2,��
2022/09/09,04:30,0.575,0.808,0.515,0.985,0.703,0.332,0.578,0.546,�k�k��,4.0,��
2022/09/09,04:40,0.575,0.806,0.515,0.987,0.702,0.332,0.578,0.549,�k,4.5,��
2022/09/09,04:50,0.574,0.807,0.514,0.986,0.702,0.333,0.578,0.549,�k,4.4,��
2022/09/09,05:00,0.576,0.805,0.515,0.984,0.703,0.333,0.578,0.547,�k,4.7,��
2022/09/09,05:10,0.575,0.807,0.515,0.986,0.701,0.334,0.578,0.546,�k,4.5,��
2022/09/09,05:20,0.576,0.807,0.514,0.985,0.703,0.332,0.580,0.548,�k,4.9,��
2022/09/09,05:30,0.576,0.806,0.516,0.987,0.701,0.332,0.577,0.547,�k,5.4,��
2022/09/09,05:40,0.574,0.806,0.514,0.987,0.702,0.332,0.579,0.547,�k,5.5,��
2022/09/09,05:50,0.575,0.806,0.514,0.985,0.700,0.333,0.578,0.547,�k,5.7,��
2022/09/09,06:00,0.575,0.806,0.514,0.985,0.702,0.334,0.578,0.547,�k,5.9,��
2022/09/09,06:10,0.577,0.807,0.514,0.986,0.703,0.333,0.579,0.546,�k,6.1,��
2022/09/09,06:20,0.577,0.807,0.516,0.987,0.702,0.331,0.579,0.546,�k,5.8,��
2022/09/09,06:30,0.575,0.805,0.516,0.987,0.703,0.333,0.579,0.547,�k,5.8,��
2022/09/09,06:40,0.574,0.805,0.516,0.987,0.703,0.332,0.580,0.547,�k,4.5,��
2022/09/09,06:50,0.577,0.807,0.514,0.987,0.701,0.333,0.580,0.547,�k,4.3,��
2022/09/09,07:00,0.574,0.805,0.515,0.988,0.702,0.332,0.578,0.547,�k,4.0,��
2022/09/09,07:10,0.575,0.805,0.513,0.988,0.701,0.332,0.578,0.547,�k,5.1,��
2022/09/09,07:20,0.573,0.806,0.514,0.989,0.701,0.332,0.578,0.547,�k,5.7,��
2022/09/09,07:30,0.574,0.806,0.512,0.987,0.703,0.332,0.577,0.547,�k,4.2,��
2022/09/09,07:40,0.573,0.802,0.513,0.987,0.699,0.333,0.578,0.547,�k,4.3,��
2022/09/09,07:50,0.573,0.802,0.515,0.986,0.700,0.334,0.578,0.546,�k�k��,3.5,��
2022/09/09,08:00,0.574,0.804,0.514,0.989,0.701,0.332,0.578,0.547,�k,3.7,��
2022/09/09,08:10,0.573,0.805,0.515,0.990,0.703,0.332,0.579,0.547,�k,3.8,��
2022/09/09,08:20,0.574,0.804,0.513,0.987,0.702,0.332,0.579,0.548,�k,4.7,��
2022/09/09,08:30,0.573,0.802,0.514,0.987,0.701,0.332,0.579,0.547,�k�k��,4.3,��
2022/09/09,08:40,0.573,0.803,0.515,0.989,0.702,0.331,0.578,0.547,�k�k��,3.4,��
2022/09/09,08:50,0.575,0.806,0.514,0.988,0.702,0.331,0.580,0.548,�k,4.0,��
2022/09/09,09:00,0.574,0.805,0.514,0.989,0.703,0.330,0.580,0.547,�k�k��,3.5,��
2022/09/09,09:10,0.578,0.806,0.516,0.987,0.702,0.332,0.581,0.546,�k�k��,4.4,��
2022/09/09,09:20,0.577,0.803,0.516,0.989,0.703,0.332,0.580,0.546,�k,4.3,��
2022/09/09,09:30,0.575,0.806,0.516,0.990,0.700,0.332,0.579,0.548,�k�k��,4.5,��
2022/09/09,09:40,0.578,0.805,0.516,0.988,0.704,0.334,0.578,0.547,�k,4.0,��
2022/09/09,09:50,0.578,0.807,0.515,0.990,0.704,0.334,0.579,0.547,�k,4.2,��
2022/09/09,10:00,0.578,0.809,0.515,0.989,0.704,0.333,0.580,0.549,�k,3.5,��
2022/09/09,10:10,0.579,0.809,0.517,0.989,0.705,0.333,0.580,0.546,�k�k��,4.0,��
2022/09/09,10:20,0.579,0.807,0.517,0.987,0.705,0.333,0.581,0.549,�k�k��,4.2,��
2022/09/09,10:30,0.579,0.809,0.517,0.990,0.706,0.332,0.581,0.548,�k�k��,4.5,��
2022/09/09,10:40,0.575,0.809,0.518,0.990,0.705,0.332,0.581,0.548,�k�k��,6.1,��
2022/09/09,10:50,0.579,0.805,0.519,0.989,0.707,0.333,0.581,0.548,�k,5.4,��
2022/09/09,11:00,0.581,0.807,0.518,0.989,0.706,0.334,0.579,0.549,�k�k��,5.0,��
2022/09/09,11:10,0.579,0.810,0.517,0.989,0.706,0.334,0.580,0.549,�k�k��,5.1,��
2022/09/09,11:20,0.580,0.811,0.518,0.989,0.707,0.333,0.580,0.548,�k,6.3,��
2022/09/09,11:30,0.580,0.812,0.521,0.988,0.707,0.333,0.581,0.549,�k,6.2,��
2022/09/09,11:40,0.579,0.813,0.520,0.988,0.706,0.334,0.581,0.550,�k�k��,5.4,��
2022/09/09,11:50,0.580,0.814,0.518,0.991,0.708,0.333,0.582,0.550,�k,6.0,��
2022/09/09,12:00,0.582,0.815,0.519,0.991,0.708,0.335,0.581,0.551,�k�k��,5.1,��
2022/09/09,12:10,0.580,0.815,0.520,0.992,0.710,0.334,0.583,0.549,�k,5.2,��
2022/09/09,12:20,0.582,0.816,0.521,0.994,0.711,0.334,0.581,0.549,�k�k��,5.6,��
2022/09/09,12:30,0.583,0.814,0.520,0.994,0.709,0.333,0.582,0.549,�k�k��,5.4,��
2022/09/09,12:40,0.583,0.817,0.521,0.993,0.711,0.334,0.583,0.549,�k�k��,6.3,��
2022/09/09,12:50,0.580,0.815,0.521,0.992,0.710,0.333,0.582,0.551,�k�k��,7.9,��
2022/09/09,13:00,0.582,0.816,0.521,0.992,0.709,0.335,0.581,0.548,�k�k��,8.1,��
2022/09/09,13:10,0.583,0.817,0.523,0.994,0.711,0.334,0.582,0.552,�k�k��,7.2,��
2022/09/09,13:20,0.582,0.817,0.520,0.995,0.712,0.335,0.583,0.552,�k�k��,6.5,��
2022/09/09,13:30,0.584,0.814,0.522,0.996,0.713,0.333,0.584,0.550,�k�k��,7.2,��
2022/09/09,13:40,0.581,0.816,0.521,0.995,0.713,0.334,0.582,0.551,�k�k��,5.9,��
2022/09/09,13:50,0.579,0.817,0.522,0.993,0.712,0.335,0.582,0.551,�k��,5.3,��
2022/09/09,14:00,0.581,0.818,0.523,0.995,0.711,0.335,0.583,0.549,�k�k��,4.9,��
2022/09/09,14:10,0.580,0.816,0.523,0.995,0.714,0.335,0.583,0.551,�k�k��,4.6,��
2022/09/09,14:20,0.582,0.817,0.522,0.996,0.713,0.335,0.583,0.550,�k�k��,4.4,��
2022/09/09,14:30,0.580,0.818,0.521,0.996,0.713,0.336,0.583,0.551,�k�k��,4.6,��
2022/09/09,14:40,0.578,0.819,0.522,0.996,0.713,0.335,0.582,0.551,�k,5.2,��
2022/09/09,14:50,0.578,0.820,0.522,0.995,0.713,0.335,0.583,0.550,�k�k��,5.4,��
2022/09/09,15:00,0.579,0.818,0.522,0.995,0.713,0.336,0.581,0.551,�k��,5.2,��
2022/09/09,15:10,0.580,0.819,0.522,0.996,0.713,0.336,0.582,0.550,�k��,5.1,��
2022/09/09,15:20,0.579,0.819,0.522,0.997,0.713,0.336,0.584,0.551,�k�k��,4.7,��
2022/09/09,15:30,0.581,0.819,0.523,0.994,0.717,0.335,0.584,0.549,�k�k��,5.5,��
2022/09/09,15:40,0.579,0.821,0.520,0.995,0.714,0.335,0.584,0.550,�k�k��,4.7,��
2022/09/09,15:50,0.582,0.821,0.522,0.995,0.714,0.335,0.584,0.551,�k�k��,4.8,��
2022/09/09,16:00,0.584,0.823,0.523,0.996,0.713,0.334,0.583,0.550,�k,5.5,��
2022/09/09,16:10,0.586,0.820,0.522,0.997,0.714,0.334,0.583,0.552,�k,4.7,��
2022/09/09,16:20,0.586,0.820,0.522,0.997,0.715,0.336,0.583,0.552,�k�k��,4.1,��
2022/09/09,16:30,0.585,0.821,0.522,0.995,0.713,0.335,0.584,0.549,�k,4.1,��
2022/09/09,16:40,0.585,0.821,0.523,0.995,0.715,0.334,0.583,0.552,�k,3.9,��
2022/09/09,16:50,0.587,0.819,0.523,0.995,0.714,0.335,0.584,0.551,�k,4.1,��
2022/09/09,17:00,0.584,0.820,0.523,0.997,0.715,0.336,0.583,0.552,�k,4.5,��
2022/09/09,17:10,0.583,0.820,0.522,0.999,0.716,0.334,0.582,0.551,�k,4.3,��
2022/09/09,17:20,0.584,0.821,0.523,0.998,0.715,0.334,0.583,0.551,�k,3.7,��
2022/09/09,17:30,0.586,0.822,0.523,0.998,0.715,0.335,0.583,0.551,�k,3.4,��
2022/09/09,17:40,0.585,0.822,0.522,0.997,0.716,0.336,0.582,0.551,�k,3.1,��
2022/09/09,17:50,0.585,0.822,0.522,0.997,0.716,0.337,0.583,0.551,�k,3.6,��
2022/09/09,18:00,0.586,0.823,0.522,0.999,0.715,0.337,0.583,0.551,�k,3.0,��
2022/09/09,18:10,0.587,0.824,0.522,0.999,0.719,0.337,0.584,0.553,�k,2.6,��
2022/09/09,18:20,0.587,0.825,0.525,1.000,0.718,0.336,0.585,0.554,�k�k��,3.4,��
2022/09/09,18:30,0.586,0.825,0.523,0.999,0.717,0.337,0.583,0.552,�k�k��,3.6,��
2022/09/09,18:40,0.586,0.826,0.523,1.001,0.717,0.337,0.584,0.555,�k�k��,4.2,��
2022/09/09,18:50,0.587,0.825,0.525,0.999,0.716,0.338,0.586,0.551,�k�k��,4.1,��
2022/09/09,19:00,0.585,0.824,0.526,0.999,0.716,0.336,0.583,0.552,�k,3.6,��
2022/09/09,19:10,0.588,0.823,0.525,1.001,0.718,0.337,0.584,0.554,�k�k��,3.8,��
2022/09/09,19:20,0.587,0.824,0.525,1.000,0.717,0.336,0.585,0.552,�k�k��,4.1,��
2022/09/09,19:30,0.587,0.824,0.525,0.999,0.717,0.336,0.584,0.554,�k�k��,2.8,��
2022/09/09,19:40,0.588,0.823,0.524,1.000,0.717,0.337,0.584,0.552,�k�k��,3.3,��
2022/09/09,19:50,0.586,0.825,0.526,1.001,0.719,0.335,0.585,0.552,�k�k��,3.4,��
2022/09/09,20:00,0.587,0.823,0.525,1.001,0.717,0.337,0.585,0.553,�k�k��,3.5,��
2022/09/09,20:10,0.587,0.826,0.524,0.999,0.717,0.335,0.584,0.552,�k�k��,3.0,��
2022/09/09,20:20,0.585,0.824,0.526,1.000,0.717,0.336,0.585,0.552,�k�k��,3.7,��
2022/09/09,20:30,0.587,0.824,0.526,1.000,0.719,0.335,0.584,0.553,�k�k��,3.9,��
2022/09/09,20:40,0.586,0.827,0.525,0.998,0.716,0.337,0.585,0.552,�k�k��,4.4,��
2022/09/09,20:50,0.586,0.824,0.526,0.999,0.717,0.335,0.584,0.553,�k�k��,4.1,��
2022/09/09,21:00,0.585,0.824,0.526,1.001,0.718,0.336,0.585,0.551,�k�k��,3.8,��
2022/09/09,21:10,0.588,0.824,0.526,1.000,0.718,0.336,0.584,0.553,�k�k��,4.4,��
2022/09/09,21:20,0.585,0.822,0.525,1.002,0.717,0.336,0.584,0.553,�k�k��,3.3,��
2022/09/09,21:30,0.587,0.824,0.526,1.003,0.717,0.336,0.584,0.553,�k�k��,4.7,��
2022/09/09,21:40,0.587,0.825,0.525,1.001,0.718,0.337,0.585,0.552,�k�k��,5.3,��
2022/09/09,21:50,0.586,0.823,0.525,0.999,0.717,0.335,0.585,0.552,�k�k��,4.9,��
2022/09/09,22:00,0.587,0.823,0.526,1.001,0.718,0.336,0.585,0.554,�k�k��,5.2,��
2022/09/09,22:10,0.586,0.824,0.525,1.000,0.718,0.335,0.585,0.551,�k�k��,5.9,��
2022/09/09,22:20,0.588,0.825,0.525,1.001,0.718,0.336,0.585,0.553,�k�k��,5.5,��
2022/09/09,22:30,0.588,0.825,0.526,0.999,0.719,0.335,0.586,0.551,�k�k��,5.5,��
2022/09/09,22:40,0.586,0.824,0.525,1.001,0.718,0.336,0.585,0.551,�k�k��,5.7,��
2022/09/09,22:50,0.586,0.825,0.526,1.003,0.716,0.336,0.587,0.553,�k�k��,5.6,��
2022/09/09,23:00,0.587,0.824,0.526,1.001,0.718,0.336,0.585,0.551,�k�k��,5.2,��
2022/09/09,23:10,0.586,0.824,0.525,1.002,0.717,0.335,0.584,0.552,�k�k��,4.3,��
2022/09/09,23:20,0.585,0.823,0.527,1.001,0.717,0.336,0.584,0.553,�k�k��,4.9,��
2022/09/09,23:30,0.586,0.825,0.526,1.003,0.717,0.336,0.585,0.552,�k�k��,4.7,��
2022/09/09,23:40,0.587,0.824,0.524,1.002,0.717,0.337,0.585,0.554,�k�k��,4.3,��
2022/09/09,23:50,0.587,0.826,0.525,1.001,0.719,0.337,0.585,0.552,�k�k��,5.1,��
